| time (UTC) | temp F | wind direction | speed knots | gust knots | rain 1hr in | rain 24hr in | rain mn in | humidity % | barometer mb |
| 20260504130519 | 50 | 0 | 1.7 | 1.7 | 0.00 | 0.00 | 0.00 | 84 | 1009.3 |
| 20260504110616 | 52 | 0 | 1.7 | 2.6 | 0.00 | 0.00 | 0.00 | 79 | 1009.3 |
| 20260504100519 | 54 | 23 | 0.9 | 1.7 | 0.00 | 0.00 | 0.00 | 73 | 1009.3 |
| 20260504081519 | 58 | 0 | 0.9 | 1.7 | 0.00 | 0.00 | 0.00 | 64 | 1009.1 |
| 20260504080519 | 58 | 23 | 0.9 | 1.7 | 0.00 | 0.00 | 0.00 | 64 | 1009.1 |
| 20260504050526 | 68 | 0 | 0.9 | 1.7 | 0.00 | 0.00 | 0.00 | 54 | 1008.7 |
| 20260504045536 | 69 | 0 | 3.5 | 4.3 | 0.00 | 0.00 | 0.00 | 52 | 1008.6 |
| 20260504044603 | 70 | 0 | 2.6 | 4.3 | 0.00 | 0.00 | 0.00 | 51 | 1008.5 |
| 20260504043613 | 71 | 23 | 1.7 | 2.6 | 0.00 | 0.00 | 0.00 | 46 | 1008.5 |
| 20260504042519 | 73 | 225 | 1.7 | 2.6 | 0.00 | 0.00 | 0.00 | 44 | 1008.3 |
| 20260504041519 | 74 | 225 | 0.9 | 2.6 | 0.00 | 0.00 | 0.00 | 40 | 1008.3 |
| 20260504040519 | 75 | 0 | 0.0 | 0.9 | 0.00 | 0.00 | 0.00 | 36 | 1008.3 |
| 20260504035520 | 76 | 113 | 0.0 | 1.7 | 0.00 | 0.00 | 0.00 | 36 | 1008.3 |
| 20260504034540 | 78 | 203 | 1.7 | 3.5 | 0.00 | 0.00 | 0.00 | 36 | 1008.3 |
| 20260504033540 | 79 | 68 | 0.9 | 3.5 | 0.00 | 0.00 | 0.00 | 31 | 1008.3 |
| 20260504032519 | 80 | 68 | 3.5 | 6.1 | 0.00 | 0.00 | 0.00 | 29 | 1008.3 |
| 20260504031600 | 80 | 68 | 3.5 | 6.1 | 0.00 | 0.00 | 0.00 | 28 | 1008.3 |
| 20260504030519 | 81 | 68 | 3.5 | 6.1 | 0.00 | 0.00 | 0.00 | 28 | 1008.3 |
| 20260504025520 | 81 | 45 | 2.6 | 6.1 | 0.00 | 0.00 | 0.00 | 28 | 1008.4 |
| 20260504024541 | 81 | 23 | 3.5 | 7.8 | 0.00 | 0.00 | 0.00 | 28 | 1008.4 |
| 20260504023520 | 82 | 23 | 4.3 | 6.1 | 0.00 | 0.00 | 0.00 | 28 | 1008.4 |
| 20260504022519 | 82 | 23 | 3.5 | 6.1 | 0.00 | 0.00 | 0.00 | 28 | 1008.4 |
| 20260504021525 | 82 | 23 | 4.3 | 7.8 | 0.00 | 0.00 | 0.00 | 27 | 1008.5 |
| 20260504020520 | 82 | 23 | 4.3 | 7.0 | 0.00 | 0.00 | 0.00 | 27 | 1008.5 |
| 20260504015531 | 83 | 23 | 3.5 | 6.1 | 0.00 | 0.00 | 0.00 | 27 | 1008.6 |
| 20260504014539 | 83 | 0 | 5.2 | 8.7 | 0.00 | 0.00 | 0.00 | 25 | 1008.6 |
| 20260504013539 | 83 | 45 | 3.5 | 7.8 | 0.00 | 0.00 | 0.00 | 22 | 1008.6 |
| 20260504012548 | 83 | 23 | 6.1 | 8.7 | 0.00 | 0.00 | 0.00 | 23 | 1008.8 |
| 20260504011519 | 84 | 23 | 5.2 | 10.4 | 0.00 | 0.00 | 0.00 | 22 | 1008.8 |
| 20260504010539 | 84 | 23 | 6.1 | 10.4 | 0.00 | 0.00 | 0.00 | 22 | 1008.8 |
| 20260504005520 | 84 | 23 | 6.1 | 11.3 | 0.00 | 0.00 | 0.00 | 22 | 1008.8 |
| 20260504004519 | 84 | 23 | 7.8 | 14.8 | 0.00 | 0.00 | 0.00 | 22 | 1009.0 |
| 20260504003520 | 84 | 23 | 7.0 | 11.3 | 0.00 | 0.00 | 0.00 | 22 | 1009.0 |
| 20260504002519 | 84 | 0 | 7.0 | 11.3 | 0.00 | 0.00 | 0.00 | 21 | 1009.2 |
| 20260504001519 | 85 | 0 | 7.8 | 12.2 | 0.00 | 0.00 | 0.00 | 21 | 1009.3 |
| 20260504000518 | 85 | 23 | 7.0 | 15.6 | 0.00 | 0.00 | 0.00 | 22 | 1009.3 |
| 20260503235600 | 85 | 23 | 7.0 | 13.9 | 0.00 | 0.00 | 0.00 | 21 | 1009.4 |
| 20260503234519 | 85 | 23 | 7.8 | 15.6 | 0.00 | 0.00 | 0.00 | 20 | 1009.6 |
| 20260503233518 | 85 | 23 | 7.8 | 12.2 | 0.00 | 0.00 | 0.00 | 20 | 1009.6 |
| 20260503232519 | 86 | 338 | 7.0 | 11.3 | 0.00 | 0.00 | 0.00 | 19 | 1009.8 |
| 20260503231519 | 86 | 23 | 7.0 | 12.2 | 0.00 | 0.00 | 0.00 | 19 | 1009.9 |
| 20260503230539 | 86 | 23 | 8.7 | 13.9 | 0.00 | 0.00 | 0.00 | 20 | 1009.9 |
| 20260503225519 | 86 | 23 | 6.1 | 11.3 | 0.00 | 0.00 | 0.00 | 21 | 1010.0 |
| 20260503224525 | 86 | 23 | 7.0 | 11.3 | 0.00 | 0.00 | 0.00 | 21 | 1010.2 |
| 20260503223519 | 86 | 23 | 7.8 | 11.3 | 0.00 | 0.00 | 0.00 | 22 | 1010.3 |
| 20260503222519 | 86 | 23 | 7.0 | 13.0 | 0.00 | 0.00 | 0.00 | 21 | 1010.4 |
| 20260503221541 | 86 | 45 | 6.1 | 9.6 | 0.00 | 0.00 | 0.00 | 22 | 1010.6 |
| 20260503220609 | 86 | 0 | 6.1 | 10.4 | 0.00 | 0.00 | 0.00 | 22 | 1010.6 |
| 20260503215518 | 86 | 0 | 5.2 | 11.3 | 0.00 | 0.00 | 0.00 | 23 | 1010.8 |
| 20260503214519 | 86 | 0 | 7.0 | 10.4 | 0.00 | 0.00 | 0.00 | 25 | 1010.9 |
| 20260503213519 | 86 | 0 | 5.2 | 9.6 | 0.00 | 0.00 | 0.00 | 25 | 1010.9 |
| 20260503212523 | 86 | 0 | 7.0 | 11.3 | 0.00 | 0.00 | 0.00 | 26 | 1010.9 |
| 20260503211518 | 86 | 0 | 5.2 | 8.7 | 0.00 | 0.00 | 0.00 | 27 | 1011.2 |
| 20260503210519 | 86 | 315 | 5.2 | 7.8 | 0.00 | 0.00 | 0.00 | 28 | 1011.2 |
| 20260503205539 | 86 | 0 | 5.2 | 7.8 | 0.00 | 0.00 | 0.00 | 29 | 1011.4 |
| 20260503204538 | 85 | 338 | 4.3 | 7.8 | 0.00 | 0.00 | 0.00 | 27 | 1011.5 |
| 20260503203519 | 84 | 0 | 2.6 | 5.2 | 0.00 | 0.00 | 0.00 | 29 | 1011.5 |
| 20260503202526 | 84 | 23 | 5.2 | 8.7 | 0.00 | 0.00 | 0.00 | 27 | 1011.9 |
| 20260503201518 | 84 | 0 | 4.3 | 8.7 | 0.00 | 0.00 | 0.00 | 32 | 1012.1 |
| 20260503200518 | 84 | 0 | 5.2 | 8.7 | 0.00 | 0.00 | 0.00 | 34 | 1012.2 |
| 20260503195532 | 84 | 315 | 3.5 | 7.8 | 0.00 | 0.00 | 0.00 | 35 | 1012.4 |
| 20260503194517 | 84 | 0 | 3.5 | 7.0 | 0.00 | 0.00 | 0.00 | 33 | 1012.5 |
| 20260503193521 | 84 | 225 | 2.6 | 5.2 | 0.00 | 0.00 | 0.00 | 34 | 1012.5 |
| 20260503192519 | 83 | 180 | 2.6 | 4.3 | 0.00 | 0.00 | 0.00 | 32 | 1012.7 |
| 20260503191518 | 82 | 225 | 2.6 | 4.3 | 0.00 | 0.00 | 0.00 | 32 | 1012.9 |
| 20260503190519 | 81 | 225 | 3.5 | 4.3 | 0.00 | 0.00 | 0.00 | 31 | 1012.9 |
| 20260503185518 | 81 | 225 | 2.6 | 5.2 | 0.00 | 0.00 | 0.00 | 34 | 1013.0 |
| 20260503184518 | 80 | 225 | 2.6 | 5.2 | 0.00 | 0.00 | 0.00 | 39 | 1013.1 |
| 20260503183518 | 79 | 225 | 2.6 | 4.3 | 0.00 | 0.00 | 0.00 | 41 | 1013.2 |
| 20260503182539 | 78 | 225 | 1.7 | 3.5 | 0.00 | 0.00 | 0.00 | 42 | 1013.3 |
| 20260503181519 | 77 | 225 | 1.7 | 4.3 | 0.00 | 0.00 | 0.00 | 43 | 1013.4 |
| 20260503180520 | 76 | 315 | 0.9 | 2.6 | 0.00 | 0.00 | 0.00 | 46 | 1013.4 |
| 20260503175520 | 75 | 180 | 1.7 | 4.3 | 0.00 | 0.00 | 0.00 | 45 | 1013.5 |
| 20260503174521 | 74 | 293 | 1.7 | 4.3 | 0.00 | 0.00 | 0.00 | 48 | 1013.6 |
| 20260503173540 | 72 | 315 | 1.7 | 3.5 | 0.00 | 0.00 | 0.00 | 48 | 1013.7 |
| 20260503172555 | 70 | 248 | 0.9 | 2.6 | 0.00 | 0.00 | 0.00 | 47 | 1014.0 |
| 20260503171520 | 69 | 315 | 0.9 | 2.6 | 0.00 | 0.00 | 0.00 | 50 | 1014.0 |
| 20260503170520 | 67 | 45 | 0.9 | 2.6 | 0.00 | 0.00 | 0.00 | 53 | 1014.0 |
| 20260503150520 | 55 | 0 | 0.9 | 1.7 | 0.00 | 0.00 | 0.00 | 79 | 1015.1 |